Welcome to the New NWS' Forecast!
Most changes are behind the scenes, but click here for differences you might notice.

Regional Weather Roundup (RWR)

Issued by Gray - Portland, ME (GYX)

                            
927 
ASUS41 KGYX 180705
RWRGYX
WEATHER ROUNDUP FOR MAINE AND NEW HAMPSHIRE
NATIONAL WEATHER SERVICE GRAY ME
300 AM EDT SAT AUG 18 2018

MEZ002-005-006-010-012-015-018-020-021-024-026-027-029-180800-
MAINE
  
CITY           SKY/WX    TMP DP  RH WIND       PRES   REMARKS
PORTLAND       CLOUDY    71  71 100 S6        29.80F FOG              
SANFORD        MOCLDY    70  70 100 SW5       29.81F FOG              
BAR HARBOR     CLOUDY    68  68 100 S8        29.84F FOG              
WISCASSET      CLOUDY    70  70 100 CALM      29.81F FOG              
ROCKLAND       LGT RAIN  69  68  96 SW10      29.81F FOG              
FRYEBURG       MOCLDY    68  67  96 CALM      29.80F FOG              
LEWISTONAUBURN CLOUDY    70  70 100 S5        29.79F FOG              
AUGUSTA        CLOUDY    70  70 100 S6        29.79F FOG              
WATERVILLE     CLOUDY    69  69 100 VRB3      29.77F FOG              
BANGOR         CLOUDY    69  68  96 S8        29.81F                  
GREENVILLE       N/A     62  62 100 SE7       29.80F                  
MILLINOCKET    CLOUDY    63  61  93 CALM      29.83F                  
HOULTON        CLOUDY    61  61 100 SE6       29.84S                  
PRESQUE ISLE   LGT RAIN  62  61  96 E5        29.87F                  
FRENCHVILLE    LGT RAIN  61  55  81 NE8G17    29.88F                  
CARIBOU        LGT RAIN  63  61  93 E5        29.86F                  
$$

NHZ002-005-008-009-011-012-014-180800-
NEW HAMPSHIRE
  
CITY           SKY/WX    TMP DP  RH WIND       PRES   REMARKS
PORTSMOUTH     LGT RAIN  73  71  96 SW6       29.81F FOG              
ROCHESTER      LGT RAIN  71  71 100 CALM      29.80F FOG              
MANCHESTER     NOT AVBL                                               
CONCORD        FAIR      72  70  93 CALM      29.82F                  
LACONIA        MOCLDY    72  70  93 SW8       29.81F                  
PLYMOUTH       LGT RAIN  69  67  95 CALM      29.80F                  
BERLIN         CLOUDY    67  66  97 CALM      29.81F                  
WHITEFIELD     CLOUDY    69  68  96 CALM      29.81F                  
JAFFREY        NOT AVBL                                               
LEBANON        MOCLDY    73  69  87 S6        29.80F                  
MT WASHINGTON  FOG       57  57 100 W38         N/A  VSB 0            
$$

VTZ005-007-008-180800-
VERMONT
  
CITY           SKY/WX    TMP DP  RH WIND       PRES   REMARKS
ST JOHNSBURY     N/A     71  70  96 MISG      29.78F                  
MONTPELIER     LGT RAIN  70  70 100 S5        29.85F                  
BURLINGTON     LGT RAIN  68  65  90 N14       29.81R                  
$$

MAZ007-012-024-CTZ003-RIZ002-NYZ038-NYZ072-180800-
SOUTHERN NEW ENGLAND AND NY
  
CITY           SKY/WX    TMP DP  RH WIND       PRES   REMARKS
BOSTON         CLOUDY    77  73  87 SW10      29.84F                  
WORCESTER      FAIR      70  69  97 SW17      29.88F                  
NANTUCKET      FOG       71  71 100 S12       29.92F VSB 1/2          
PROVIDENCE     LGT RAIN  76  74  93 SW14      29.88F                  
HARTFORD       CLOUDY    72  70  93 S9        29.86F                  
ALBANY         LGT RAIN  74  71  91 S8        29.84F                  
NEW YORK CITY  MOCLDY    78  72  81 S8        29.88F                  
$$

ANZ081-ANZ082-ANZ150-NHZ014-MEZ023>029-180800-
COASTAL MARINE OBSERVATIONS
  
STATION/POSITION TIME  TEMP    WIND        PRES    WAVE
                       AIR SEA DIR/SP/G            HT/PER
                 (UTC) (F)     (DEG/KT/KT) (MB)    (FT/S)
MOUNT DESERT ROC 0700   66     180/ 22/ 22 1010.4F
MATINICUS ROCK   0600   66     200/ 21/ 22 1010.4F
ISLE OF SHOALS   0600   72     220/ 12/ 13 1009.1F
JEFFREYS LEDGE   0636      69                N/A     2/ 4
CASHES LEDGE BUO 0650   71 69              1010.4F   3/ 5
$$

.............KEY..............
   WCI - WIND CHILL
   TC  - TEMPERATURE IN CELSIUS
   VSB - VISIBILITY IN MILES
   HX  - HEAT INDEX
   FAIR- INDICATES FEW OR NO CLOUDS BELOW 12,000 FT, WITH NO 
         SIGNIFICANT WEATHER AND/OR OBSTRUCTIONS TO VISIBILITY.